Location: Austin
(30.3000°N, 97.7500°W)
Time: 03:01:17
(UTC-05:00)

YAOGAN 1 - Pass Details

Date: 01 October 2024
Orbit: 610 x 612 km, 97.8° (Epoch: 06 October)

Event Time Altitude Azimuth Distance (km) Brightness Sun altitude
Rises 20:08:59 0° 161° (SSE) 2,858 5.8 -12.4°
Reaches altitude 10° 20:11:10 10° 159° (SSE) 1,957 4.9 -12.8°
Maximum altitude 20:15:23 67° 77° (ENE) 662 2.4 -13.7°
Drops below altitude 10° 20:19:38 10° 354° (N) 1,967 5.3 -14.7°
Sets 20:21:49 0° 352° (N) 2,874 6.1 -15.1°
